map of CPH home
Great Circle Mapper logo
CPH - Airport
Location
City:  Copenhagen, Denmark
Near (Alt.):København
Name:København Airport - Kastrup
ICAO:EKCH
IATA:CPH

Details
Type:Airport (Aerodrome, Airfield)
Latitude:55°37'05"N (55.617917)
Longitude:12°39'21"E (12.655972)
Elevation:17 ft (5 m)
Variation:3.50°E (WMM2015 magnetic declination)
0.15° annual change
Runways:3
Longest:11811 × 148 ft (3600 × 45 m), paved

Time
Time Zone:UTC+1 (DST+2)
Local Time:

Weather
METAR:EKCH 291050Z 36008KT 320V040 CAVOK 21/14 Q1013 NOSIG
TAF:EKCH 290521Z 2906/3006 07012KT 9999 SCT040 PROB40 2920/2923 2000 TSRA SCT045CB
TEMPO 2923/3006 07015G25KT

Related Locations
Nearby:
Farthest:CHT: 11521 mi / 18541 km
Waitangi [Tuuta], Chatham Islands, NZ

Find:

   beyond  
but within

Other Information
Maps:
NOTAMs:
Links:
Sources:

  
flag of Denmark   

Sectional Chart

Flight Planning
at skyvector.com

Satellite Image

Google Maps Satellite view

 

Copyright © 2004-2016 Karl L. Swartz. All rights reserved.
The Great Circle Mapper name and logo are trademarks of the Great Circle Mapper.
All other trademarks mentioned herein belong to their respective owners.
Please see credits for attibutions and further copyright information.

  Follow gcmap on Facebook Follow gcmap on Twitter Follow gcmap on Google+ GCmap on LinkedIn

hCard Microformat

Geo Microformat